Weather in Colac

Australia     38°20′22″S   143°35′32″E
temp.,
°C
wind,
m/s
gust,
m/s
humid.,
%
clouds,
%
prec.,
mm/h
press.,
hPa
HPBL,
m
22 april, thu
thu2201:00+11wnw61171100 0.1 1013642
04:00+10nw6127957 0.1 1012586
07:00+10wnw61284100 0.1 1012635
10:00+12w6981100 0.5 1013870
13:00+14w696784 0.4 10121379
16:00+14w6105875 0.5 10121546
19:00+12w51177100 0.1 1014738
22:00+12w61182100 0.3 1015759
23 april, fri
fri2301:00+11w5992100 0.3 1015353
04:00+11wsw41083100 0.6 1016497
07:00+10w3689100 0.3 1017217
10:00+13wsw5871100 0.5 1019946
13:00+14w576272 0.1 10191391
16:00+14wsw5862100 0.2 10191362
19:00+12w3778100 0.1 1021376
22:00+11w3783100 0.3 1022295
24 april, sat
sat2401:00+11w4881100 0.1 1022350
04:00+11wnw4779100 0.3 1021319
07:00+11w4782100 0.2 1022280
10:00+12w4779100 0.3 1023431
13:00+16w566056 0.2 10221346
16:00+15wsw576568 0.6 10221087
19:00+11wsw489085 0.1 1024296
22:00+10wsw3595100 0.2 1024160
25 april, sun
sun2501:00+12w3784100 0.1 1024422
04:00+11w379310 0.4 1024303
07:00+10w3793100 0.0 1024208
10:00+13w477893 0.1 1026668
13:00+16sw5764100 0.3 10251232
16:00+14wsw587751 0.7 1025861
19:00+10sw35933 0.1 1027185
22:00+9wsw24947 0.1 102880
26 april, mon
mon2601:00+11wsw2592100 0.0 1028158
04:00+12wsw3582100 0.1 1027212
07:00+11sw2486100 0.1 1028151
10:00+13sw3367100 0.1 1030915
13:00+13wsw2364100 0.0 10291033
16:00+14wsw236394 0.0 1028806
19:00+12sw247013 0.0 1029145
22:00+8sw23908 0.0 102960